Regional Weather Roundup
Issued by NWS

Home | Current Version | Previous Version | Text Only | Print | Product List | Glossary Off
Versions: 1 2 3 4 5 6 7 8 9 10 11 12 13 14 15 16 17 18 19 20 21 22 23 24 25 26 27 28 29 30 31 32 33 34 35 36 37 38 39 40 41 42 43 44 45 46 47 48 49 50

000
ASUS43 KOAX 271810
RWRNE

WEATHER ROUNDUP FOR NEBRASKA
NATIONAL WEATHER SERVICE OMAHA NE
100 PM CDT SAT AUG 27 2016

NOTES: SATELLITE DATA IS BEING USED TO AUGMENT CLOUD COVER ABOVE
       12000 FEET.
       "FAIR" INDICATES FEW OR NO CLOUDS BELOW 12,000 FEET WITH NO
       SIGNIFICANT WEATHER AND/OR OBSTRUCTIONS TO VISIBILITY.

  * THESE STATIONS DO NOT REPORT WEATHER SUCH AS RAIN...SNOW OR FOG.

NEZ001>004-019>022-054>056-271900-
NEBRASKA PANHANDLE

CITY           SKY/WX    TMP DP  RH WIND       PRES   REMARKS
SCOTTSBLUFF    SUNNY     77  50  38 VRB5      30.04F
6HR MIN TEMP:  53; 6HR MAX TEMP:  77;

ALLIANCE       SUNNY     74  54  49 SW5       30.04F
6HR MIN TEMP:  54; 6HR MAX TEMP:  74;

CHADRON        SUNNY     76  52  43 W8        29.98F
6HR MIN TEMP:  48; 6HR MAX TEMP:  76;

KIMBALL        SUNNY     76  45  33 W6        30.10F
SIDNEY         CLOUDY    71  57  61 S6        30.09F
6HR MIN TEMP:  50; 6HR MAX TEMP:  73;

$$

NEZ057>060-069>072-079>082-271900-
SOUTHWEST NEBRASKA

CITY           SKY/WX    TMP DP  RH WIND       PRES   REMARKS
NORTH PLATTE   SUNNY     78  60  53 S9        30.03F
6HR MIN TEMP:  54; 6HR MAX TEMP:  78;

IMPERIAL       CLOUDY    72  61  68 S10       30.06F
6HR MIN TEMP:  51; 6HR MAX TEMP:  72;

LEXINGTON      SUNNY     77  58  52 SE9       30.04S
MCCOOK         SUNNY     78  62  57 VRB5      30.04F
6HR MIN TEMP:  51; 6HR MAX TEMP:  78;

OGALLALA       SUNNY     76  60  58 SW7       30.04F
$$

NEZ005>010-023>029-035>040-094-271900-
NORTH CENTRAL NEBRASKA

CITY           SKY/WX    TMP DP  RH WIND       PRES   REMARKS
VALENTINE      MOSUNNY   77  55  46 S14       29.99F
6HR MIN TEMP:  56; 6HR MAX TEMP:  77;

AINSWORTH      SUNNY     77  56  47 S10       30.01S
BROKEN BOW     SUNNY     76  56  49 SW9       30.02F
6HR MIN TEMP:  58; 6HR MAX TEMP:  76;

O`NEILL        SUNNY     80  57  46 SW8       30.00F
ORD            SUNNY     76  59  55 S6        30.01F
6HR MIN TEMP:  58; 6HR MAX TEMP:  76;

THEDFORD       MOSUNNY   78  59  51 S10G21    30.03F
$$

NEZ041-046>049-061>064-073>077-083>087-271900-
SOUTH CENTRAL NEBRASKA

CITY           SKY/WX    TMP DP  RH WIND       PRES   REMARKS
GRAND ISLAND   SUNNY     78  59  51 VRB5      30.03F
6HR MIN TEMP:  56; 6HR MAX TEMP:  78;

AURORA         SUNNY     76  60  56 CALM      30.03F
HASTINGS       SUNNY     77  58  51 S6        30.04F
6HR MIN TEMP:  57; 6HR MAX TEMP:  78;

HEBRON         SUNNY     77  65  67 SE5       30.04F
HOLDREGE       SUNNY     77  57  50 S7        30.04F
KEARNEY *      SUNNY     77  61  57 SE10      30.02F
YORK           SUNNY     77  63  61 W5        30.04S
$$

NEZ011>018-030>034-042>045-271900-
NORTHEAST NEBRASKA

CITY           SKY/WX    TMP DP  RH WIND       PRES   REMARKS
NORFOLK        PTSUNNY   74  61  63 VRB7      30.02S
6HR MIN TEMP:  63; 6HR MAX TEMP:  75;

ALBION         PTSUNNY   74  62  66 S5        30.02F
BLAIR          MOSUNNY   77  65  65 SW6       30.02F
FREMONT        MOSUNNY   76  63  65 W5        30.03S
TEKAMAH        MOSUNNY   76  65  68 S7        30.01S
6HR MIN TEMP:  65; 6HR MAX TEMP:  77; 6HR PCP: TRACE;

WAYNE          CLOUDY    73  65  75 S7        30.02S
$$

NEZ050>053-065>068-078-088>093-271900-
SOUTHEAST NEBRASKA

CITY           SKY/WX    TMP DP  RH WIND       PRES   REMARKS
LINCOLN        SUNNY     81  64  56 W7        30.02F
6HR MIN TEMP:  68; 6HR MAX TEMP:  81;

OMAHA EPPLEY   MOSUNNY   79  65  62 VRB3      30.01S
6HR MIN TEMP:  67; 6HR MAX TEMP:  79;

BEATRICE       SUNNY     76  65  68 S7        30.03F
FALLS CITY     MOSUNNY   81  68  64 VRB3      30.02S
6HR MIN TEMP:  67; 6HR MAX TEMP:  81;

NEBRASKA CITY  CLOUDY    75  68  78 S3        30.03S
PLATTSMOUTH    MOSUNNY   78  67  69 W5        30.02F
$$

NEZ044-045-051>053-067-271900-
OMAHA AREA

CITY           SKY/WX    TMP DP  RH WIND       PRES   REMARKS
OMAHA EPPLEY   MOSUNNY   79  65  62 VRB3      30.01S
6HR MIN TEMP:  67; 6HR MAX TEMP:  79;

BLAIR          MOSUNNY   77  65  65 SW6       30.02F
FREMONT        MOSUNNY   76  63  65 W5        30.03S
MILLARD        MOSUNNY   79  65  62 S5        30.01F
OFFUTT AFB     MOSUNNY   78  66  66 S7        30.01S
PLATTSMOUTH    MOSUNNY   78  67  69 W5        30.02F
WAHOO          FAIR      77  65  67 S5        30.02S
$$




USA.gov is the U.S. government's official web portal to all federal, state and local government web resources and services.